Flight Track Log - Related Links

Times and Time Zones

All times are in EDT time to prevent confusion due to time zone crossing. See the ASQ5941 flight status page for this flight to view local times or setup timezone preferences in your user account.

Time Position Orientation Groundspeed Altitude Reporting Facility
EDT Latitude Longitude Course Direction KTS MPH feet Rate Location/Type
04:55PM 41.2369 -75.8200 216° Southwest 220 253 5,700  Level New York Center
04:56PM 41.3741 -75.8481 304° West  Level FlightAware Approximate
04:56PM 41.2742 -75.8753 312° West 179 206 7,300  Level New York Center
04:57PM 41.4186 -75.9303 315° West  Level FlightAware Approximate
04:57PM 41.3525 -75.8950 349° North 196 226 8,000  Level New York Center
04:58PM 41.4657 -76.0147 304° West  Level FlightAware Approximate
04:58PM 41.4328 -75.9178 348° North 245 282 8,100  Level New York Center
04:59PM 41.5211 -76.0900 312° West  Level FlightAware Approximate
04:59PM 41.5131 -75.9406 348° North 271 312 9,100  Level New York Center
05:00PM 41.5989 -75.9778 342° North 298 343 10,200 1,033 Climbing New York Center
05:01PM 41.6406 -76.0725 301° West 280 322 11,200 942 Climbing New York Center
05:02PM 41.6747 -76.1892 291° West 314 361 12,100 992 Climbing New York Center
05:03PM 41.7050 -76.3000 290° West 343 395 13,200 1,210 Climbing New York Center
05:04PM 41.7408 -76.4253 291° West 359 413 14,500 1,613 Climbing New York Center
05:05PM 41.7803 -76.5592 292° West 353 406 16,400 1,488 Climbing New York Center
05:06PM 41.8119 -76.6761 290° West 353 406 17,500 957 Climbing New York Center
05:09PM 41.8978 -76.9925 290° West 354 407 19,700 899 Climbing Cleveland Center
05:10PM 41.9278 -77.0942 292° West 365 420 20,600 900 Climbing Cleveland Center
05:11PM 41.9656 -77.2375 290° West 365 420 21,500 850 Climbing Cleveland Center
05:12PM 42.0025 -77.3697 291° West 371 427 22,300 1,000 Climbing Cleveland Center
05:13PM 42.0356 -77.5050 288° West 376 433 23,500 1,200 Climbing Cleveland Center
05:14PM 42.0703 -77.6347 290° West 376 433 24,700 900 Climbing Cleveland Center
05:15PM 42.1047 -77.7619 290° West 376 433 25,300 800 Climbing Cleveland Center
05:16PM 42.1392 -77.8919 290° West 371 427 26,300 950 Climbing Cleveland Center
05:17PM 42.1711 -78.0169 289° West 365 420 27,200 950 Climbing Cleveland Center
05:18PM 42.2050 -78.1389 291° West 354 407 28,200 1,000 Climbing Cleveland Center
05:19PM 42.2347 -78.2611 288° West 354 407 29,200 900 Climbing Cleveland Center
05:20PM 42.2661 -78.3806 290° West 349 402 30,000 400 Climbing Cleveland Center
05:21PM 42.2978 -78.5058 289° West 344 396 30,000 450 Level Cleveland Center
05:22PM 42.3311 -78.6339 289° West 344 396 30,900 900 Climbing Cleveland Center
05:23PM 42.3625 -78.7622 288° West 350 403 31,800 850 Climbing Cleveland Center
05:24PM 42.3958 -78.8906 289° West 355 409 32,600 900 Climbing Cleveland Center
05:25PM 42.4311 -79.0331 289° West 361 415 33,600 700 Climbing Cleveland Center
05:26PM 42.4597 -79.1450 289° West 361 415 34,000 200 Climbing Cleveland Center
05:27PM 42.4925 -79.2794 288° West 366 421 34,000  Level Cleveland Center
05:28PM 42.5003 -79.4231 274° West 373 429 34,000  Level Cleveland Center
05:29PM 42.5058 -79.5664 273° West 380 437 34,000  Level Cleveland Center
05:30PM 42.5111 -79.7100 273° West 385 443 34,000  Level Cleveland Center
05:31PM 42.5225 -79.8508 276° West 385 443 34,000  Level Cleveland Center
05:32PM 42.5233 -79.9889 271° West 385 443 34,000  Level Cleveland Center
05:33PM 42.5303 -80.1239 274° West 374 430 34,000  Level Cleveland Center
05:34PM 42.5328 -80.2592 271° West 365 420 34,000  Level Cleveland Center
05:35PM 42.5414 -80.4000 275° West 372 428 34,000  Level Cleveland Center
05:36PM 42.5456 -80.5550 272° West 372 428 34,000  Level Cleveland Center
05:37PM 42.5539 -80.6903 275° West 372 428 34,000  Level Cleveland Center
05:38PM 42.5578 -80.8342 272° West 372 428 34,000  Level Cleveland Center
05:39PM 42.5636 -80.9722 273° West 377 434 34,000  Level Cleveland Center
05:40PM 42.5672 -81.1133 272° West 372 428 34,000  Level Cleveland Center
05:41PM 42.5728 -81.2514 273° West 367 422 34,000  Level Cleveland Center
05:42PM 42.5783 -81.3925 273° West 367 422 34,000  Level Cleveland Center
05:43PM 42.5961 -81.5222 281° West 367 422 34,000  Level Cleveland Center
05:44PM 42.6178 -81.6553 283° West 367 422 34,000  Level Cleveland Center
05:45PM 42.6394 -81.7800 283° West 367 422 34,000  Level Cleveland Center
05:46PM 42.6611 -81.8961 284° West 361 415 34,000  Level Cleveland Center
05:47PM 42.6864 -82.0519 282° West 361 415 34,000  Level Cleveland Center
05:48PM 42.7094 -82.1853 283° West 361 415 34,000  Level Cleveland Center
05:49PM 42.7328 -82.3186 283° West 356 410 34,000  Level Cleveland Center
05:50PM 42.7556 -82.4494 283° West 356 410 34,000  Level Cleveland Center
05:51PM 42.7764 -82.5831 282° West 356 410 34,000  Level Cleveland Center
05:52PM 42.7989 -82.7111 284° West 356 410 34,000  Level Cleveland Center
05:53PM 42.8214 -82.8450 283° West 356 410 34,000  Level Cleveland Center
05:54PM 42.8417 -82.9786 282° West 356 410 34,000  Level Cleveland Center
05:55PM 42.8597 -83.1069 281° West 356 410 34,000  Level Cleveland Center
05:56PM 42.8608 -83.2428 271° West 356 410 34,000  Level Cleveland Center
05:57PM 42.8578 -83.3731 268° West 351 404 34,000  Level Cleveland Center
05:58PM 42.8608 -83.5064 272° West 351 404 34,000  Level Cleveland Center
05:59PM 42.8594 -83.6394 269° West 351 404 34,000 -300 Level Cleveland Center
06:00PM 42.8558 -83.7753 268° West 351 404 33,400 -800 Descending Cleveland Center
06:01PM 42.8581 -83.9114 271° West 351 404 32,400 -700 Descending Cleveland Center
06:02PM 42.8567 -84.0331 269° West 356 410 32,000 -200 Descending Cleveland Center
06:03PM 42.8567 -84.1692 270° West 356 410 32,000  Level Cleveland Center
06:04PM 42.8544 -84.3050 269° West 361 415 32,000  Level Cleveland Center
06:05PM 42.8517 -84.4519 269° West 361 415 32,000  Level Cleveland Center
06:06PM 42.8511 -84.5881 270° West 367 422 32,000  Level Cleveland Center
06:07PM 42.8522 -84.7258 271° West 361 415 32,000  Level Chicago Center
06:08PM 42.8497 -84.8633 269° West 363 418 32,000  Level Chicago Center
06:09PM 42.8411 -84.9989 265° West 360 414 32,000  Level Chicago Center
06:10PM 42.8242 -85.1472 261° West 333 383 32,000  Level Chicago Center
06:11PM 42.8119 -85.2594 262° West 308 354 32,000  Level Chicago Center
06:12PM 42.7989 -85.3669 261° West 291 335 32,000 -97 Level Chicago Center
06:13PM 42.7450 -85.4586 231° Southwest 315 362 31,800 -194 Descending Chicago Center
06:14PM 42.6842 -85.5511 228° Southwest 325 374 31,600 -581 Descending Chicago Center
06:15PM 42.6247 -85.6439 229° Southwest 324 373 30,600 -968 Descending Chicago Center
06:16PM 42.6000 -85.7533 253° West 313 360 29,600 -1,355 Descending Chicago Center
06:17PM 42.6119 -85.8897 277° West 303 349 27,800 -1,790 Descending Chicago Center
06:18PM 42.6222 -86.0031 277° West 302 348 25,900 -1,887 Descending Chicago Center
06:19PM 42.6317 -86.1133 277° West 295 339 23,900 -1,984 Descending Chicago Center
06:20PM 42.6414 -86.2203 277° West 288 331 21,800 -1,403 Descending Chicago Center
06:21PM 42.6358 -86.3183 266° West 257 296 21,000 -387 Descending Chicago Center
06:22PM 42.6172 -86.4189 256° West 271 312 21,000  Level Chicago Center
06:23PM 42.5983 -86.5211 256° West 279 321 21,000  Level Chicago Center
06:24PM 42.5764 -86.6383 256° West 269 310 21,000 -48 Level Chicago Center
06:25PM 42.5728 -86.7372 267° West 268 308 20,900 -435 Descending Chicago Center
06:26PM 42.5747 -86.8383 272° West 269 310 20,100 -774 Descending Chicago Center
06:27PM 42.5769 -86.9408 272° West 272 313 19,300 -871 Descending Chicago Center
06:28PM 42.5194 -87.0256 227° Southwest 269 310 18,300 -1,016 Descending Chicago Center
06:29PM 42.4683 -87.0917 224° Southwest 257 296 17,200 -1,113 Descending Chicago Center
06:30PM 42.4342 -87.1711 240° Southwest 247 284 16,000 -1,073 Descending Chicago Center
06:31PM 42.4811 -87.2292 318° Northwest 291 335 15,000 -537 Descending Chicago Center
06:32PM 42.5442 -87.1361 47° Northeast 356 410 14,900 -387 Descending Chicago Center
06:34PM 42.5164 -87.0369 111° Southeast 309 356 14,200 -871 Descending Chicago Center
06:35PM 42.4350 -86.9875 156° South 321 369 13,100 -1,065 Descending Chicago Center
06:36PM 42.3517 -86.9353 155° Southeast 331 381 12,000 -919 Descending Chicago Center
06:37PM 42.2667 -86.8856 157° South 299 344 11,200 -871 Descending Chicago Center
06:38PM 42.1953 -86.8700 171° South 266 306 10,200 -919 Descending Chicago Center
06:39PM 42.1300 -86.8572 172° South 243 280 9,300 -919 Descending Chicago Center
06:40PM 42.0614 -86.8597 182° South 256 295 8,300 -581 Descending Chicago Center
06:41PM 42.0231 -86.9522 241° Southwest 241 277 8,100 -97 Descending Chicago Center
06:42PM 41.9972 -87.0194 243° Southwest 207 238 8,100 -49 Level Chicago Center
06:43PM 41.9836 -87.0908 256° West 204 235 8,000 -244 Descending Chicago Center
06:44PM 41.9908 -87.1633 278° West 203 234 7,600 -484 Descending Chicago Center
06:45PM 42.0056 -87.2322 286° West 208 239 7,000 -290 Descending Chicago Center
06:46PM 41.9778 -87.3072 244° Southwest 198 228 7,000  Level Chicago Center
06:47PM 41.9836 -87.3858 276° West 214 246 7,000 58 Level Chicago Center
06:48PM 41.9833 -87.4333 270° West 183 211 7,100 -353 Climbing Chicago TRACON
06:49PM 41.9833 -87.5000 270° West 195 224 6,400 -850 Descending Chicago TRACON
06:50PM 41.9833 -87.5833 270° West 178 205 5,400 -1,000 Descending Chicago TRACON
06:51PM 41.9833 -87.6333 270° West 176 203 4,500 -1,000 Descending Chicago TRACON

Login

Don't have an account? Register now (free) for customized features, flight alerts, and more!